TimeCDT,TemperatureF,Dew PointF,Humidity,Sea Level PressureIn,VisibilityMPH,Wind Direction,Wind SpeedMPH,Gust SpeedMPH,PrecipitationIn,Events,Conditions,WindDirDegrees,DateUTC
12:53 AM,53.1,48.0,83,30.04,10.0,North,5.8,-,N/A,,Clear,360,2013-10-08 05:53:00
1:53 AM,53.1,48.0,83,30.04,10.0,North,4.6,-,N/A,,Clear,10,2013-10-08 06:53:00
2:53 AM,52.0,46.9,83,30.01,10.0,North,4.6,-,N/A,,Clear,360,2013-10-08 07:53:00
3:53 AM,51.1,46.9,86,30.01,10.0,North,4.6,-,N/A,,Clear,350,2013-10-08 08:53:00
4:53 AM,50.0,46.9,89,30.01,10.0,Calm,Calm,-,N/A,,Clear,0,2013-10-08 09:53:00
5:53 AM,50.0,46.9,89,30.03,10.0,Calm,Calm,-,N/A,,Clear,0,2013-10-08 10:53:00
6:53 AM,48.9,46.9,93,30.04,10.0,Calm,Calm,-,N/A,,Partly Cloudy,0,2013-10-08 11:53:00
7:23 AM,50.0,46.4,87,30.05,10.0,Calm,Calm,-,N/A,,Mostly Cloudy,0,2013-10-08 12:23:00
7:53 AM,53.1,48.9,86,30.06,10.0,Calm,Calm,-,N/A,,Mostly Cloudy,0,2013-10-08 12:53:00
8:29 AM,57.2,50.0,77,30.07,10.0,NE,10.4,-,N/A,,Scattered Clouds,50,2013-10-08 13:29:00
8:53 AM,61.0,50.0,67,30.06,10.0,ENE,10.4,18.4,N/A,,Partly Cloudy,60,2013-10-08 13:53:00
9:53 AM,66.0,51.1,59,30.07,10.0,East,8.1,-,N/A,,Partly Cloudy,80,2013-10-08 14:53:00
10:53 AM,69.1,52.0,54,30.07,10.0,East,8.1,-,N/A,,Clear,80,2013-10-08 15:53:00
11:53 AM,73.0,53.1,49,30.07,10.0,East,6.9,-,N/A,,Clear,80,2013-10-08 16:53:00
12:53 PM,75.0,55.9,51,30.05,10.0,Variable,3.5,-,N/A,,Clear,0,2013-10-08 17:53:00
1:53 PM,77.0,57.0,50,30.03,10.0,Variable,5.8,-,N/A,,Scattered Clouds,0,2013-10-08 18:53:00
2:53 PM,78.1,59.0,52,30.03,10.0,East,5.8,-,N/A,,Mostly Cloudy,80,2013-10-08 19:53:00
3:53 PM,77.0,60.1,56,30.03,10.0,East,4.6,-,N/A,,Scattered Clouds,90,2013-10-08 20:53:00
4:53 PM,77.0,60.1,56,30.04,10.0,ENE,6.9,-,N/A,,Mostly Cloudy,70,2013-10-08 21:53:00
5:53 PM,75.0,60.1,60,30.04,10.0,East,3.5,-,N/A,,Mostly Cloudy,80,2013-10-08 22:53:00
6:53 PM,73.0,61.0,66,30.06,10.0,ENE,3.5,-,N/A,,Mostly Cloudy,60,2013-10-08 23:53:00
7:53 PM,73.0,62.1,68,30.07,10.0,East,8.1,-,N/A,,Mostly Cloudy,90,2013-10-09 00:53:00
8:53 PM,72.0,61.0,68,30.08,10.0,Variable,4.6,17.3,N/A,,Mostly Cloudy,0,2013-10-09 01:53:00
9:53 PM,71.1,61.0,70,30.08,10.0,East,9.2,-,N/A,,Overcast,100,2013-10-09 02:53:00
10:53 PM,70.0,60.1,71,30.08,10.0,ENE,8.1,-,N/A,,Overcast,70,2013-10-09 03:53:00
11:53 PM,68.0,59.0,73,30.08,10.0,East,4.6,-,N/A,,Mostly Cloudy,90,2013-10-09 04:53:00